Location: Bagnara
(41.0500°N, 14.7833°E)
Time: 03:52:03
(UTC+00:00)

Cosmos 773 Rocket - Visible Passes

Search period start: 17 October 2021 00:00
Search period end: 27 October 2021 00:00
Orbit: 745 x 777 km, 74.1° (Epoch: 16 October)

Date Brightness Start Highest point End Pass type
(mag) Time Alt. Az. Time Alt. Az. Time Alt. Az.
17 Oct 7.0 02:32:13 10° ESE 02:33:55 12° E 02:35:36 10° ENE visible
17 Oct 3.9 04:09:50 10° SSW 04:15:01 79° WNW 04:20:18 10° NNE visible
18 Oct 4.6 03:30:52 10° S 03:35:56 58° ESE 03:41:05 10° NNE visible
19 Oct 5.7 02:52:26 10° SSE 02:56:59 32° E 03:01:34 10° NE visible
19 Oct 4.7 04:34:13 10° SW 04:38:49 31° WNW 04:43:29 10° N visible
20 Oct 6.5 02:14:45 10° SE 02:18:08 18° E 02:21:32 10° NE visible
20 Oct 4.1 03:54:26 10° SW 03:59:31 54° WNW 04:04:41 10° N visible
21 Oct 3.9 03:17:35 29° SSW 03:20:21 85° ESE 03:25:38 10° NNE visible
22 Oct 4.8 02:40:34 43° SE 02:41:19 47° ESE 02:46:20 10° NNE visible
22 Oct 5.2 04:20:46 16° W 04:23:28 23° WNW 04:27:35 10° N visible
23 Oct 6.0 02:03:15 25° E 02:03:15 25° E 02:06:41 10° NE visible
23 Oct 4.5 03:43:27 36° W 03:44:04 38° WNW 03:48:59 10° N visible
24 Oct 6.9 01:25:46 11° ENE 01:25:46 11° ENE 01:26:17 10° ENE visible
24 Oct 4.3 03:05:56 52° NNW 03:05:56 52° NNW 03:10:05 10° NNE visible
25 Oct 5.5 02:28:16 30° NNE 02:28:16 30° NNE 02:30:57 10° NNE visible
25 Oct 5.6 04:08:25 16° NW 04:08:25 16° NW 04:11:27 10° NNW visible
26 Oct 6.6 01:50:29 16° NE 01:50:29 16° NE 01:51:32 10° NE visible
26 Oct 5.5 03:30:38 22° NNW 03:30:38 22° NNW 03:33:09 10° N visible
